Showing default

LYNK TOWER 4, 55034

Orbit data source: Space-Track

LYNK TOWER 4, 55034 is a payload satellite owned by Lynk (US) in SSO that was launched on Tue, 03 Jan 2023 UTC via an FALCON 9 launch vehicle from the Air Force Eastern Test Range (AFETR). Payload-class satellites include a variety of spacecraft equipped with specific instruments for various scientific and technological missions. These include communications satellites like Starlink; space stations such as the ISS; scientific satellites like the Hubble; Earth observation satellites from companies like Planet Labs, Umbra, and HawkEye 360; GPS; miniature CubeSats for education and research; and military/defense satellites.

Loading next visibility...
Identifier
55034, 2023-001AB
Orbit
SSO
Last TLE update
18 hours ago
Origin
Manufacturer
Lynk
Mission
Operational Commercial Communications
Bus & Motor
LYNK SHANNON, Unknown motor
Mass
~80 kg wet, ~80 kg dry
Launch date (UTC)
2023-01-03 (2 years ago)
Launch vehicle
FALCON 9
Launch site
Air Force Eastern Test Range (AFETR)
Object type
Payload
Rocket body
Debris
Shape & HBR
Box, 1 m
Radar Cross Section
0.650 m², Medium (>0.1 m² and < 1m²)

Expand to show TLE details & history

TLE from 18 hours ago
0 LYNK TOWER 4
1 55034U 23001AB  25167.06429139  .00005656  00000-0  21781-3 0  9992
2 55034  97.3720 225.0166 0008892 352.3970   7.7132 15.26720022135843
Epoch: 2025-06-16T01:32Z
TLE epoch observation values (Epoch: 2025-06-16T01:32:34.776Z)
Latitude
-0.00006°
Longitude
-62.70869°
Altitude
482.677 km
Speed
7.627 km/s
True Right ascension
15h 00m 03s
True Declination
0° 00' 00"
Sunlit
Object was in full shadow at epoch
Visualization orbit readout
Latitude
37.11046°
Longitude
123.61508°
Altitude
496.225 km
Speed
7.617 km/s
Apparent Right ascension
23h 21m 46s
Apparent Declination
0° 52' 12"
Sunlit
Object is in daylight
Visualization observer readout
Local Sidereal Time
06:08:54
Azimuth
278.293° WNW
Elevation
-8.445°
Doppler factor
1
Orbital elements
Apogee altitude
488.681 km
Perigee altitude
476.48 km
Semi-major axis
6,860.718 km
Eccentricity
0.00089
Inclination
97.372°
RAAN
225.0166°
Arg. of periapsis
352.397°
True anomaly
Unknown
Mean anomaly
7.7132°
Eccentric anomaly
Unknown
Mean motion
3.81934 °/min
Orbital period
94.26 mins
BSTAR
0.00021781
Loading maneuver chart data...
Loading SW <> Apogee altitude chart data...
Loading historical data...
Loading historical data...
Loading historical data...
Loading historical data...
Loading historical data...
Loading historical data...
Loading historical data...

LYNK TOWER 4 Visibility forecast

Observer location: undefined°, undefined°

Span
Click to sort rows by Start time (UTC) header in descending order
Start Az.
Max El. time (UTC)
Max El. Az.
Max El.
End time (UTC)
End Az.
5 mins2025-06-17 04:25:06.543Z205.769° SW2025-06-17 04:27:06.543Z254.94° W28.698°2025-06-17 04:30:06.543Z325.266° NNW
|